Weather in Nadezhdino

Russia / Omsk Oblast     55˚11′44″N   73˚15′18″E
temp.,
°C
wind,
m/s
gust,
m/s
humid.,
%
clouds,
%
prec.,
mm/h
press.,
hPa
HPBL,
m
16 january, sat
sat1600:00−18˚sse71488100 0.1 1033345
03:00−16˚sse81389100 0.1 1029335
06:00−15˚s61188100 0.1 1026340
09:00−14˚s71383100 0.0 1023334
12:00−12˚s61081100 0.0 1021338
15:00−10˚s5982100 0.0 1017346
18:00−11˚sse51185100 0.0 1014270
21:00−11˚sse61383100 0.0 1010284
17 january, sun
sun1700:00−10˚s51086100 0.0 1007337
03:00−11˚ssw51091100 0.0 1004277
06:00−10˚wsw5129493 0.3 1005382
09:00−9˚wsw61393100 0.1 1006415
12:00−9˚wsw7139299 0.1 1008433
15:00−9˚sw6138959 0.0 1008372
18:00−9˚sw7178574 0.0 1007610
21:00−9˚wsw8168895 0.0 1006815
18 january, mon
mon1800:00−9˚wsw8158997 0.1 1006988
03:00−12˚wsw71588100 0.1 1008698
06:00−16˚wsw6139198 0.1 1011356
09:00−19˚wsw5119568 0.0 1013227
12:00−19˚w489471 0.0 1016260
15:00−18˚w369555 0.0 1017236
18:00−22˚wsw239838 0.0 101820
21:00−23˚sw23980 0.0 101920
19 january, tue
tue1900:00−23˚sw339712 0.0 101922
03:00−24˚sw339627 0.0 101925
06:00−25˚sw239613 0.0 101821
09:00−25˚wsw23958 0.0 101822
12:00−22˚wsw239436 0.0 1019114
15:00−20˚w229456 0.0 1019127
18:00−21˚n129478 0.0 101921
21:00−21˚ne3494100 0.0 1019106
20 january, wed
wed2000:00−22˚ne4795100 0.0 1019219
03:00−22˚ne5994100 0.0 1018268
06:00−22˚ene51094100 0.0 1016319
09:00−22˚ene61194100 0.0 1016350
12:00−23˚ene5998100 1.8 1015348
15:00−22˚ne4697100 1.0 1015365
18:00−24˚nne3598100 1.3 1017200
21:00−26˚nnw369790 0.1 1020168